AQI (43)

Current Conditions for Foresthill, CA. Dawn, Overcast , Dry   
Visibility: 10 miles
Cloud ht: 12,000 ft Foresthill Advisory text: No Warning

  Summary / Temperature 

Current Temperature
55.5°F
13.1°C
(24/hr Ago)
55.3°F
(Apparent temp)
53.5°F
Cool
Wind Chill Graphs
55.5°F 

56.2°F/ 13.4°C
 --- Virtual Temp: 57.8°F ---

 Temp Rate:

 24/hr Difference:

 Avg Running Temp:

 Todays High:

 Todays Low:

 Y-days High:

 Y-days Low:

 Todays WChill:

 Y-days WChill:

 Evapotranspiration:

0°F/hr 

+0.2°F

55.6°F

57.5°F 12:00am

55.1°F 3:49am

74.5°F 2:00pm

55.0°F 6:54am

51.8°F 4:31am

51.3°F 6:55am

0.006 in

115' Above Ground

 Temperature:

 6'AGL VRS 115'AGL:

 Avg Running Temp:

 Humidity:

 Todays High:

 Todays Low:

 Y-days High:

 Y-days Low:

57.0°F 

+1.5°F

56.8°F

61% 

59.0°F 12:00am

56.0°F 2:34am

72.0°F 1:26pm

57.0°F 6:03am

Temp & Humidity Graphs

  Wind 

Wind Speed

 4.0 mph

Gusting to

 8.0 mph

Wind from E

101°  E

Light breeze

 Avg speed:

 Wind Run:

 Peak Gust:

  2.0 mph 

21.0 miles

  16.0 mph 1:18am

  Almanac  

Moon age: 17 days,19 hours,28 minutes,90%

Waning Gibbous
88%
Illuminated
18 days in cycle

 Moonrise:

 Moonset:

 Sunrise:

 Sunset:

 Solar Noon:

11:32pm

8:49am

6:19am

7:41pm

1:02pm

2min 24s more daylight tomorrow 

  Solar Radiation 

(Current Solar)
  No Sun Light
(Todays High)
 None@12:00am

Rain

 Rain Today:

 Rain Rate (/hr):

 Rain last hour:

 Rain Yesterday:

 This Month:

 Season Total:

16 Days Since Last Rain Day

0.00 in

0.000 in

0.00 in

0.00 in

1.04 in

30.97 in

Updated Time

Updated: 4/18/14  6:06am

(Updated  sec ago)

Humidity & Barometer

 Humidity:

 Wetbulb:

 Dew Point:

 Barometer:

71% 

50.7°F 

46.2°F 

29.820 inHg 

 Baro Trend:  Steady 
Northern Calif
Preparedness
Fire 
Level 

    UV Index  

(Current UV)
0.0  None
(Todays High) @ 12:00am
0.0   None

Weather Underground 5 day Forecast

Fri Sat Sun Mon Tue
Partly Cloudy Clear Partly Cloudy Partly Cloudy Chance Rain
Partly Cloudy Clear Partly Cloudy Partly Cloudy Chance Rain
70° 66° 73° 70° 50°
52° 50° 52° 46° 39°

Foresthill Probe 2 Stats  
Foresthill Probe 2: is located on Thomas Street
at 3000 feet. The main Foresthill Weather site
is located on Melody ln at the 2860 foot elevation

Calm
52.6°F
11.4°C
Temp Rate:
0°F
Calm
Gusting to
2.0 mph
(Humidity)
77%
Wind from ESE
105°  ESE
Updated: 18/04/14 - 06:06:45
 Todays High: 55.7°F 01:08
 Todays Low: 52.5°F 03:05
 Rain Today: 0.00 in
 Season Total: 30.19 in

Foresthill Wx: Monthly,Yearly, Highs and Lows 

Foresthill  
This Weather Data is coming from the main Foresthill
Weather site located on Melody ln at the 2860 foot
elevation
Not Foresthill Probe 2
Weather Data
Month
  High
Month
  Low
Year
High
Year
Low
Temp 76.4°F
4/10/14
32.8°F
4/1/14
76.4°F
4/10/14
32.0°F
2/4/14
Humidity 100%
4/1/14
21%
4/11/14
100%
3/1/14
13%
1/21/14
Heat Index 75.7°F
4/10/14
39.0°F
4/1/14
75.7°F
4/10/14
35.5°F
2/5/14
Wind Chill 76.4°F
4/10/14
22.9°F
4/1/14
76.4°F
4/10/14
21.6°F
2/5/14
Wind Gust 24 mph
4/14/14
0 mph
4/1/14
40 mph
3/12/14
0 mph
1/1/14
Barometer 30.28 in
4/6/14
29.80 in
4/17/14
30.55 in
1/14/14
29.47 in
2/28/14
ET 0.21 in
4/14/14
0.00 in
4/1/14
0.21 in
4/14/14
0.00 in
1/1/14
Dew Point 52.7°F
4/12/14
21.4°F
4/14/14
54.1°F
2/14/14
5.1°F
1/4/14
Infrared Satellite Regional Radar Satellite Imagery Sacramento,CA.  (click to enlarge)
NWS Weather Forecast - Outlook: Today and Tonight
Today

Mostly Sunny
Mostly
Sunny
Hi 71 °F
NWS forecast: Mostly sunny, with a high near 71. Light and variable wind becoming west southwest 5 to 8 mph in the afternoon.
Tonight

Partly Cloudy
Partly
Cloudy
Lo 47 °F
NWS forecast: Partly cloudy, with a low around 47. West wind 5 to 7 mph becoming light and variable.
NWS Weather Forecast - Summary
Updated: Friday, April 18, 2014 - 6:02am (PDT)
YR.NO 10 Day Weather forecast
Last update: 04/18/2014 @ 00:06
Next update: 04/18/2014 @ 13:00
Provided by: 22
      Temperature Precipitation Pressure Wind  
Today
04/18/2014
08:00 11:00 54°F   29.84 inHg Light air from east-northeast 3 mph
  11:00 17:00 66°F   29.86 inHg Light breeze from west-southwest 4 mph
  17:00 23:00 66°F   29.82 inHg Light breeze from west 6 mph
  23:00 05:00 52°F   29.90 inHg Light breeze from east 4 mph
    (Click to enlarge)
meteogram

    Forecast for next 9 days

      Temperature Precip Pressure Wind  
Saturday
04/19/2014
05:00 11:00 45°F   29.92 inHg Light breeze from east 4 mph
  11:00 17:00 64°F   29.98 inHg Gentle breeze from southwest 8 mph
  17:00 23:00 64°F   30.01 inHg Light breeze from southwest 7 mph
  23:00 05:00 46°F   30.10 inHg Light breeze from east-northeast 4 mph
      Temperature Precip Pressure Wind  
Sunday
04/20/2014
05:00 11:00 41°F   30.08 inHg Light breeze from east-northeast 5 mph
  11:00 17:00 70°F   30.06 inHg Light air from east-southeast 1 mph
  17:00 23:00 72°F   30.03 inHg Light breeze from west 6 mph
  23:00 05:00 54°F   30.07 inHg Light air from east 3 mph
      Temperature Precip Pressure Wind  
Monday
04/21/2014
05:00 11:00 43°F   30.01 inHg Light breeze from east 4 mph
  11:00 17:00 68°F   30.01 inHg Gentle breeze from south-southwest 8 mph
  17:00 23:00 64°F   29.99 inHg Light breeze from southwest 5 mph
  23:00 05:00 54°F 0.04 in 29.97 inHg Light breeze from south 4 mph
      Temperature Precip Pressure Wind  
Tuesday
04/22/2014
05:00 11:00 46°F 0.21 in 29.94 inHg Light breeze from southeast 4 mph
  11:00 17:00 43°F 0.10 in 29.99 inHg Light breeze from south-southeast 5 mph
  17:00 23:00 46°F 0.02 in 30.00 inHg Light breeze from southwest 7 mph
  23:00 05:00 41°F   30.06 inHg Light air from east-northeast 3 mph
      Temperature Precip Pressure Wind  
Wednesday
04/23/2014
05:00 11:00 36°F   30.09 inHg Light air from east-northeast 3 mph
  11:00 17:00 54°F   30.07 inHg Light breeze from west-northwest 4 mph
  17:00 23:00 57°F   30.00 inHg Light breeze from west 6 mph
  23:00 05:00 41°F   30.00 inHg Light air from east-northeast 2 mph
      Temperature Precip Pressure Wind  
Thursday
04/24/2014
05:00 11:00 36°F   29.97 inHg Light air from east-northeast 3 mph
  11:00 17:00 59°F < 0.01 in 29.95 inHg Light breeze from southwest 6 mph
  17:00 23:00 57°F   29.95 inHg Light breeze from southwest 6 mph
  23:00 05:00 46°F   29.99 inHg Light breeze from south-southeast 5 mph
      Temperature Precip Pressure Wind  
Friday
04/25/2014
05:00 11:00 43°F < 0.01 in 29.91 inHg Light air from east-southeast 2 mph
  11:00 17:00 50°F 0.09 in 29.90 inHg Light breeze from southwest 6 mph
  17:00 23:00 41°F 0.13 in 29.95 inHg Light breeze from south 4 mph
  23:00 05:00 39°F   29.95 inHg Light air from east-southeast 3 mph
      Temperature Precip Pressure Wind  
Saturday
04/26/2014
05:00 11:00 39°F 0.06 in 29.88 inHg Light air from east 2 mph
  11:00 17:00 43°F 0.20 in 29.91 inHg Light breeze from south 6 mph
  17:00 23:00 43°F 0.27 in 29.85 inHg Light breeze from southeast 6 mph
  23:00 05:00 41°F 0.52 in 29.80 inHg Light breeze from south 6 mph
      Temperature Precip Pressure Wind  
Sunday
04/27/2014
05:00 11:00 39°F 0.55 in 29.68 inHg Gentle breeze from south 12 mph
  11:00 17:00 41°F 0.43 in 29.68 inHg Moderate breeze from south 13 mph

Weather History For Friday, April 18, 2014


On this Day - In Weather History ...
Data courtesy of weatherforyou.com
powered by Cumulus v1.9.3 (1059)
Ambient Weather VWS v14.00
Top Contact Website Map Copyright © 2007 - 2014 Foresthillweather.com Never base important decisions on this or any weather information obtained from the Internet